Year,Month,Day,Hour,Minute,Value (Times are PST for insolation in W/m^2)
2019,10,06,00,00,0.00
2019,10,06,00,01,0.00
2019,10,06,00,02,0.00
2019,10,06,00,03,0.00
2019,10,06,00,04,0.00
2019,10,06,00,05,0.00
2019,10,06,00,06,0.00
2019,10,06,00,07,0.00
2019,10,06,00,08,0.00
2019,10,06,00,09,0.00
2019,10,06,00,10,0.00
2019,10,06,00,11,0.00
2019,10,06,00,12,0.00
2019,10,06,00,13,0.00
2019,10,06,00,14,0.00
2019,10,06,00,15,0.00
2019,10,06,00,16,0.00
2019,10,06,00,17,0.00
2019,10,06,00,18,0.00
2019,10,06,00,19,0.00
2019,10,06,00,20,0.00
2019,10,06,00,21,0.00
2019,10,06,00,22,0.00
2019,10,06,00,23,0.00
2019,10,06,00,24,0.00
2019,10,06,00,25,0.00
2019,10,06,00,26,0.00
2019,10,06,00,27,0.00
2019,10,06,00,28,0.00
2019,10,06,00,29,0.00
2019,10,06,00,30,0.00
2019,10,06,00,31,0.00
2019,10,06,00,32,0.00
2019,10,06,00,33,0.00
2019,10,06,00,34,0.00
2019,10,06,00,35,0.00
2019,10,06,00,36,0.00
2019,10,06,00,37,0.00
2019,10,06,00,38,0.00
2019,10,06,00,39,0.00
2019,10,06,00,40,0.00
2019,10,06,00,41,0.00
2019,10,06,00,42,0.00
2019,10,06,00,43,0.00
2019,10,06,00,44,0.00
2019,10,06,00,45,0.00
2019,10,06,00,46,0.00
2019,10,06,00,47,0.00
2019,10,06,00,48,0.00
2019,10,06,00,49,0.00
2019,10,06,00,50,0.00
2019,10,06,00,51,0.00
2019,10,06,00,52,0.00
2019,10,06,00,53,0.00
2019,10,06,00,54,0.00
2019,10,06,00,55,0.00
2019,10,06,00,56,0.00
2019,10,06,00,57,0.00
2019,10,06,00,58,0.00
2019,10,06,00,59,0.00
2019,10,06,01,00,0.00
2019,10,06,01,01,0.00
2019,10,06,01,02,0.00
2019,10,06,01,03,0.00
2019,10,06,01,04,0.00
2019,10,06,01,05,0.00
2019,10,06,01,06,0.00
2019,10,06,01,07,0.00
2019,10,06,01,08,0.00
2019,10,06,01,09,0.00
2019,10,06,01,10,0.00
2019,10,06,01,11,0.00
2019,10,06,01,12,0.00
2019,10,06,01,13,0.00
2019,10,06,01,14,0.00
2019,10,06,01,15,0.00
2019,10,06,01,16,0.00
2019,10,06,01,17,0.00
2019,10,06,01,18,0.00
2019,10,06,01,19,0.00
2019,10,06,01,20,0.00
2019,10,06,01,21,0.00
2019,10,06,01,22,0.00
2019,10,06,01,23,0.00
2019,10,06,01,24,0.00
2019,10,06,01,25,0.00
2019,10,06,01,26,0.00
2019,10,06,01,27,0.00
2019,10,06,01,28,0.00
2019,10,06,01,29,0.00
2019,10,06,01,30,0.00
2019,10,06,01,31,0.00
2019,10,06,01,32,0.00
2019,10,06,01,33,0.00
2019,10,06,01,34,0.00
2019,10,06,01,35,0.00
2019,10,06,01,36,0.00
2019,10,06,01,37,0.00
2019,10,06,01,38,0.00
2019,10,06,01,39,0.00
2019,10,06,01,40,0.00
2019,10,06,01,41,0.00
2019,10,06,01,42,0.00
2019,10,06,01,43,0.00
2019,10,06,01,44,0.00
2019,10,06,01,45,0.00
2019,10,06,01,46,0.00
2019,10,06,01,47,0.00
2019,10,06,01,48,0.00
2019,10,06,01,49,0.00
2019,10,06,01,50,0.00
2019,10,06,01,51,0.00
2019,10,06,01,52,0.00
2019,10,06,01,53,0.00
2019,10,06,01,54,0.00
2019,10,06,01,55,0.00
2019,10,06,01,56,0.00
2019,10,06,01,57,0.00
2019,10,06,01,58,0.00
2019,10,06,01,59,0.00
2019,10,06,02,00,0.00
2019,10,06,02,01,0.00
2019,10,06,02,02,0.00
2019,10,06,02,03,0.00
2019,10,06,02,04,0.00
2019,10,06,02,05,0.00
2019,10,06,02,06,0.00
2019,10,06,02,07,0.00
2019,10,06,02,08,0.00
2019,10,06,02,09,0.00
2019,10,06,02,10,0.00
2019,10,06,02,11,0.00
2019,10,06,02,12,0.00
2019,10,06,02,13,0.00
2019,10,06,02,14,0.00
2019,10,06,02,15,0.00
2019,10,06,02,16,0.00
2019,10,06,02,17,0.00
2019,10,06,02,18,0.00
2019,10,06,02,19,0.00
2019,10,06,02,20,0.00
2019,10,06,02,21,0.00
2019,10,06,02,22,0.00
2019,10,06,02,23,0.00
2019,10,06,02,24,0.00
2019,10,06,02,25,0.00
2019,10,06,02,26,0.00
2019,10,06,02,27,0.00
2019,10,06,02,28,0.00
2019,10,06,02,29,0.00
2019,10,06,02,30,0.00
2019,10,06,02,31,0.00
2019,10,06,02,32,0.00
2019,10,06,02,33,0.00
2019,10,06,02,34,0.00
2019,10,06,02,35,0.00
2019,10,06,02,36,0.00
2019,10,06,02,37,0.00
2019,10,06,02,38,0.00
2019,10,06,02,39,0.00
2019,10,06,02,40,0.00
2019,10,06,02,41,0.00
2019,10,06,02,42,0.00
2019,10,06,02,43,0.00
2019,10,06,02,44,0.00
2019,10,06,02,45,0.00
2019,10,06,02,46,0.00
2019,10,06,02,47,0.00
2019,10,06,02,48,0.00
2019,10,06,02,49,0.00
2019,10,06,02,50,0.00
2019,10,06,02,51,0.00
2019,10,06,02,52,0.00
2019,10,06,02,53,0.00
2019,10,06,02,54,0.00
2019,10,06,02,55,0.00
2019,10,06,02,56,0.00
2019,10,06,02,57,0.00
2019,10,06,02,58,0.00
2019,10,06,02,59,0.00
2019,10,06,03,00,0.00
2019,10,06,03,01,0.00
2019,10,06,03,02,0.00
2019,10,06,03,03,0.00
2019,10,06,03,04,0.00
2019,10,06,03,05,0.00
2019,10,06,03,06,0.00
2019,10,06,03,07,0.00
2019,10,06,03,08,0.00
2019,10,06,03,09,0.00
2019,10,06,03,10,0.00
2019,10,06,03,11,0.00
2019,10,06,03,12,0.00
2019,10,06,03,13,0.00
2019,10,06,03,14,0.00
2019,10,06,03,15,0.00
2019,10,06,03,16,0.00
2019,10,06,03,17,0.00
2019,10,06,03,18,0.00
2019,10,06,03,19,0.00
2019,10,06,03,20,0.00
2019,10,06,03,21,0.00
2019,10,06,03,22,0.00
2019,10,06,03,23,0.00
2019,10,06,03,24,0.00
2019,10,06,03,25,0.00
2019,10,06,03,26,0.00
2019,10,06,03,27,0.00
2019,10,06,03,28,0.00
2019,10,06,03,29,0.00
2019,10,06,03,30,0.00
2019,10,06,03,31,0.00
2019,10,06,03,32,0.00
2019,10,06,03,33,0.00
2019,10,06,03,34,0.00
2019,10,06,03,35,0.00
2019,10,06,03,36,0.00
2019,10,06,03,37,0.00
2019,10,06,03,38,0.00
2019,10,06,03,39,0.00
2019,10,06,03,40,0.00
2019,10,06,03,41,0.00
2019,10,06,03,42,0.00
2019,10,06,03,43,0.00
2019,10,06,03,44,0.00
2019,10,06,03,45,0.00
2019,10,06,03,46,0.00
2019,10,06,03,47,0.00
2019,10,06,03,48,0.00
2019,10,06,03,49,0.00
2019,10,06,03,50,0.00
2019,10,06,03,51,0.00
2019,10,06,03,52,0.00
2019,10,06,03,53,0.00
2019,10,06,03,54,0.00
2019,10,06,03,55,0.00
2019,10,06,03,56,0.00
2019,10,06,03,57,0.00
2019,10,06,03,58,0.00
2019,10,06,03,59,0.00
2019,10,06,04,00,0.00
2019,10,06,04,01,0.00
2019,10,06,04,02,0.00
2019,10,06,04,03,0.00
2019,10,06,04,04,0.00
2019,10,06,04,05,0.00
2019,10,06,04,06,0.00
2019,10,06,04,07,0.00
2019,10,06,04,08,0.00
2019,10,06,04,09,0.00
2019,10,06,04,10,0.00
2019,10,06,04,11,0.00
2019,10,06,04,12,0.00
2019,10,06,04,13,0.00
2019,10,06,04,14,0.00
2019,10,06,04,15,0.00
2019,10,06,04,16,0.00
2019,10,06,04,17,0.00
2019,10,06,04,18,0.00
2019,10,06,04,19,0.00
2019,10,06,04,20,0.00
2019,10,06,04,21,0.00
2019,10,06,04,22,0.00
2019,10,06,04,23,0.00
2019,10,06,04,24,0.00
2019,10,06,04,25,0.00
2019,10,06,04,26,0.00
2019,10,06,04,27,0.00
2019,10,06,04,28,0.00
2019,10,06,04,29,0.00
2019,10,06,04,30,0.00
2019,10,06,04,31,0.00
2019,10,06,04,32,0.00
2019,10,06,04,33,0.00
2019,10,06,04,34,0.00
2019,10,06,04,35,0.00
2019,10,06,04,36,0.00
2019,10,06,04,37,0.00
2019,10,06,04,38,0.00
2019,10,06,04,39,0.00
2019,10,06,04,40,0.00
2019,10,06,04,41,0.00
2019,10,06,04,42,0.00
2019,10,06,04,43,0.00
2019,10,06,04,44,0.00
2019,10,06,04,45,0.00
2019,10,06,04,46,0.00
2019,10,06,04,47,0.00
2019,10,06,04,48,0.00
2019,10,06,04,49,0.00
2019,10,06,04,50,0.00
2019,10,06,04,51,0.00
2019,10,06,04,52,0.00
2019,10,06,04,53,0.00
2019,10,06,04,54,0.00
2019,10,06,04,55,0.00
2019,10,06,04,56,0.00
2019,10,06,04,57,0.00
2019,10,06,04,58,0.00
2019,10,06,04,59,0.00
2019,10,06,05,00,0.00
2019,10,06,05,01,0.00
2019,10,06,05,02,0.00
2019,10,06,05,03,0.00
2019,10,06,05,04,0.00
2019,10,06,05,05,0.00
2019,10,06,05,06,0.00
2019,10,06,05,07,0.00
2019,10,06,05,08,0.00
2019,10,06,05,09,0.00
2019,10,06,05,10,0.00
2019,10,06,05,11,0.00
2019,10,06,05,12,0.00
2019,10,06,05,13,0.00
2019,10,06,05,14,0.00
2019,10,06,05,15,0.00
2019,10,06,05,16,0.00
2019,10,06,05,17,0.00
2019,10,06,05,18,0.00
2019,10,06,05,19,0.00
2019,10,06,05,20,0.00
2019,10,06,05,21,0.00
2019,10,06,05,22,0.00
2019,10,06,05,23,0.00
2019,10,06,05,24,0.00
2019,10,06,05,25,0.00
2019,10,06,05,26,0.00
2019,10,06,05,27,0.00
2019,10,06,05,28,0.00
2019,10,06,05,29,0.00
2019,10,06,05,30,0.00
2019,10,06,05,31,0.00
2019,10,06,05,32,0.00
2019,10,06,05,33,0.00
2019,10,06,05,34,0.00
2019,10,06,05,35,0.00
2019,10,06,05,36,0.00
2019,10,06,05,37,0.00
2019,10,06,05,38,0.00
2019,10,06,05,39,0.00
2019,10,06,05,40,0.00
2019,10,06,05,41,0.00
2019,10,06,05,42,0.00
2019,10,06,05,43,0.00
2019,10,06,05,44,0.00
2019,10,06,05,45,0.00
2019,10,06,05,46,0.00
2019,10,06,05,47,0.00
2019,10,06,05,48,0.00
2019,10,06,05,49,0.00
2019,10,06,05,50,0.00
2019,10,06,05,51,0.00
2019,10,06,05,52,0.00
2019,10,06,05,53,0.00
2019,10,06,05,54,0.00
2019,10,06,05,55,0.00
2019,10,06,05,56,0.00
2019,10,06,05,57,0.00
2019,10,06,05,58,0.00
2019,10,06,05,59,0.00
2019,10,06,06,00,0.00
2019,10,06,06,01,0.00
2019,10,06,06,02,0.00
2019,10,06,06,03,0.00
2019,10,06,06,04,0.00
2019,10,06,06,05,0.00
2019,10,06,06,06,0.00
2019,10,06,06,07,0.00
2019,10,06,06,08,0.00
2019,10,06,06,09,0.00
2019,10,06,06,10,0.00
2019,10,06,06,11,0.00
2019,10,06,06,12,0.00
2019,10,06,06,13,0.00
2019,10,06,06,14,0.00
2019,10,06,06,15,0.00
2019,10,06,06,16,0.00
2019,10,06,06,17,0.00
2019,10,06,06,18,0.00
2019,10,06,06,19,0.00
2019,10,06,06,20,0.00
2019,10,06,06,21,0.00
2019,10,06,06,22,0.00
2019,10,06,06,23,0.00
2019,10,06,06,24,0.00
2019,10,06,06,25,0.00
2019,10,06,06,26,0.00
2019,10,06,06,27,0.00
2019,10,06,06,28,0.00
2019,10,06,06,29,0.00
2019,10,06,06,30,0.00
2019,10,06,06,31,0.00
2019,10,06,06,32,0.00
2019,10,06,06,33,0.00
2019,10,06,06,34,0.00
2019,10,06,06,35,0.00
2019,10,06,06,36,0.00
2019,10,06,06,37,0.00
2019,10,06,06,38,0.00
2019,10,06,06,39,0.00
2019,10,06,06,40,0.00
2019,10,06,06,41,0.00
2019,10,06,06,42,0.00
2019,10,06,06,43,0.00
2019,10,06,06,44,0.00
2019,10,06,06,45,0.00
2019,10,06,06,46,0.00
2019,10,06,06,47,0.00
2019,10,06,06,48,0.00
2019,10,06,06,49,0.00
2019,10,06,06,50,0.00
2019,10,06,06,51,0.00
2019,10,06,06,52,0.00
2019,10,06,06,53,0.00
2019,10,06,06,54,0.00
2019,10,06,06,55,0.00
2019,10,06,06,56,0.00
2019,10,06,06,57,0.00
2019,10,06,06,58,0.00
2019,10,06,06,59,0.00
2019,10,06,07,00,0.00
2019,10,06,07,01,0.00
2019,10,06,07,02,0.00
2019,10,06,07,03,0.00
2019,10,06,07,04,0.00
2019,10,06,07,05,0.00
2019,10,06,07,06,0.00
2019,10,06,07,07,0.00
2019,10,06,07,08,0.00
2019,10,06,07,09,0.00
2019,10,06,07,10,0.00
2019,10,06,07,11,0.00
2019,10,06,07,12,0.00
2019,10,06,07,13,0.00
2019,10,06,07,14,0.00
2019,10,06,07,15,0.00
2019,10,06,07,16,0.00
2019,10,06,07,17,0.00
2019,10,06,07,18,0.00
2019,10,06,07,19,0.00
2019,10,06,07,20,0.00
2019,10,06,07,21,0.00
2019,10,06,07,22,0.00
2019,10,06,07,23,0.00
2019,10,06,07,24,4.80
2019,10,06,07,25,5.00
2019,10,06,07,26,5.00
2019,10,06,07,27,5.80
2019,10,06,07,28,7.00
2019,10,06,07,29,7.00
2019,10,06,07,30,7.00
2019,10,06,07,31,8.60
2019,10,06,07,32,9.00
2019,10,06,07,33,11.00
2019,10,06,07,34,11.20
2019,10,06,07,35,12.00
2019,10,06,07,36,12.00
2019,10,06,07,37,12.00
2019,10,06,07,38,13.30
2019,10,06,07,39,14.00
2019,10,06,07,40,15.70
2019,10,06,07,41,16.00
2019,10,06,07,42,16.30
2019,10,06,07,43,18.00
2019,10,06,07,44,18.40
2019,10,06,07,45,19.00
2019,10,06,07,46,20.10
2019,10,06,07,47,21.00
2019,10,06,07,48,22.60
2019,10,06,07,49,23.00
2019,10,06,07,50,23.20
2019,10,06,07,51,25.00
2019,10,06,07,52,25.00
2019,10,06,07,53,25.00
2019,10,06,07,54,25.00
2019,10,06,07,55,25.60
2019,10,06,07,56,26.00
2019,10,06,07,57,26.00
2019,10,06,07,58,27.90
2019,10,06,07,59,28.00
2019,10,06,08,00,28.40
2019,10,06,08,01,30.00
2019,10,06,08,02,30.90
2019,10,06,08,03,32.00
2019,10,06,08,04,32.70
2019,10,06,08,05,33.00
2019,10,06,08,06,34.70
2019,10,06,08,07,35.10
2019,10,06,08,08,37.00
2019,10,06,08,09,37.00
2019,10,06,08,10,37.80
2019,10,06,08,11,39.50
2019,10,06,08,12,40.00
2019,10,06,08,13,41.30
2019,10,06,08,14,43.60
2019,10,06,08,15,44.10
2019,10,06,08,16,46.00
2019,10,06,08,17,46.20
2019,10,06,08,18,47.00
2019,10,06,08,19,47.90
2019,10,06,08,20,49.00
2019,10,06,08,21,49.00
2019,10,06,08,22,50.50
2019,10,06,08,23,51.00
2019,10,06,08,24,51.10
2019,10,06,08,25,53.00
2019,10,06,08,26,53.20
2019,10,06,08,27,54.00
2019,10,06,08,28,54.90
2019,10,06,08,29,57.20
2019,10,06,08,30,60.60
2019,10,06,08,31,73.20
2019,10,06,08,32,99.40
2019,10,06,08,33,123.70
2019,10,06,08,34,123.40
2019,10,06,08,35,125.90
2019,10,06,08,36,123.20
2019,10,06,08,37,115.00
2019,10,06,08,38,122.40
2019,10,06,08,39,129.40
2019,10,06,08,40,140.20
2019,10,06,08,41,141.10
2019,10,06,08,42,138.20
2019,10,06,08,43,135.60
2019,10,06,08,44,143.40
2019,10,06,08,45,150.10
2019,10,06,08,46,158.90
2019,10,06,08,47,158.10
2019,10,06,08,48,159.00
2019,10,06,08,49,161.70
2019,10,06,08,50,160.10
2019,10,06,08,51,161.80
2019,10,06,08,52,172.20
2019,10,06,08,53,182.60
2019,10,06,08,54,180.70
2019,10,06,08,55,173.00
2019,10,06,08,56,176.60
2019,10,06,08,57,191.80
2019,10,06,08,58,203.10
2019,10,06,08,59,214.60
2019,10,06,09,00,219.60
2019,10,06,09,01,218.00
2019,10,06,09,02,218.00
2019,10,06,09,03,205.40
2019,10,06,09,04,202.80
2019,10,06,09,05,191.50
2019,10,06,09,06,171.60
2019,10,06,09,07,178.10
2019,10,06,09,08,189.40
2019,10,06,09,09,185.20
2019,10,06,09,10,182.30
2019,10,06,09,11,185.10
2019,10,06,09,12,195.50
2019,10,06,09,13,209.10
2019,10,06,09,14,222.80
2019,10,06,09,15,235.70
2019,10,06,09,16,242.80
2019,10,06,09,17,245.40
2019,10,06,09,18,254.30
2019,10,06,09,19,264.80
2019,10,06,09,20,249.50
2019,10,06,09,21,220.40
2019,10,06,09,22,267.80
2019,10,06,09,23,285.40
2019,10,06,09,24,248.10
2019,10,06,09,25,195.90
2019,10,06,09,26,137.80
2019,10,06,09,27,134.00
2019,10,06,09,28,129.90
2019,10,06,09,29,123.00
2019,10,06,09,30,125.60
2019,10,06,09,31,143.00
2019,10,06,09,32,142.10
2019,10,06,09,33,144.70
2019,10,06,09,34,189.20
2019,10,06,09,35,162.20
2019,10,06,09,36,181.20
2019,10,06,09,37,196.30
2019,10,06,09,38,185.60
2019,10,06,09,39,142.50
2019,10,06,09,40,115.80
2019,10,06,09,41,109.40
2019,10,06,09,42,108.60
2019,10,06,09,43,105.80
2019,10,06,09,44,109.00
2019,10,06,09,45,110.60
2019,10,06,09,46,112.00
2019,10,06,09,47,112.90
2019,10,06,09,48,119.20
2019,10,06,09,49,128.60
2019,10,06,09,50,130.40
2019,10,06,09,51,137.00
2019,10,06,09,52,137.50
2019,10,06,09,53,140.10
2019,10,06,09,54,145.30
2019,10,06,09,55,153.20
2019,10,06,09,56,160.20
2019,10,06,09,57,160.40
2019,10,06,09,58,160.00
2019,10,06,09,59,160.60
2019,10,06,10,00,172.00
2019,10,06,10,01,173.20
2019,10,06,10,02,176.00
2019,10,06,10,03,176.00
2019,10,06,10,04,176.00
2019,10,06,10,05,173.20
2019,10,06,10,06,173.60
2019,10,06,10,07,171.20
2019,10,06,10,08,169.00
2019,10,06,10,09,169.00
2019,10,06,10,10,167.50
2019,10,06,10,11,164.10
2019,10,06,10,12,162.40
2019,10,06,10,13,162.00
2019,10,06,10,14,162.00
2019,10,06,10,15,158.60
2019,10,06,10,16,156.10
2019,10,06,10,17,155.60
2019,10,06,10,18,152.40
2019,10,06,10,19,150.30
2019,10,06,10,20,150.00
2019,10,06,10,21,153.30
2019,10,06,10,22,153.60
2019,10,06,10,23,153.00
2019,10,06,10,24,155.70
2019,10,06,10,25,162.50
2019,10,06,10,26,168.20
2019,10,06,10,27,173.90
2019,10,06,10,28,180.80
2019,10,06,10,29,186.60
2019,10,06,10,30,188.00
2019,10,06,10,31,185.90
2019,10,06,10,32,181.60
2019,10,06,10,33,174.10
2019,10,06,10,34,168.10
2019,10,06,10,35,162.70
2019,10,06,10,36,161.30
2019,10,06,10,37,157.60
2019,10,06,10,38,152.80
2019,10,06,10,39,151.00
2019,10,06,10,40,152.60
2019,10,06,10,41,153.00
2019,10,06,10,42,153.00
2019,10,06,10,43,153.60
2019,10,06,10,44,157.80
2019,10,06,10,45,164.00
2019,10,06,10,46,167.00
2019,10,06,10,47,168.20
2019,10,06,10,48,169.00
2019,10,06,10,49,171.50
2019,10,06,10,50,176.10
2019,10,06,10,51,185.80
2019,10,06,10,52,193.50
2019,10,06,10,53,194.10
2019,10,06,10,54,189.30
2019,10,06,10,55,183.40
2019,10,06,10,56,179.20
2019,10,06,10,57,176.50
2019,10,06,10,58,176.00
2019,10,06,10,59,177.90
2019,10,06,11,00,178.80
2019,10,06,11,01,176.80
2019,10,06,11,02,172.00
2019,10,06,11,03,168.00
2019,10,06,11,04,165.80
2019,10,06,11,05,162.90
2019,10,06,11,06,160.50
2019,10,06,11,07,158.30
2019,10,06,11,08,155.90
2019,10,06,11,09,155.00
2019,10,06,11,10,156.50
2019,10,06,11,11,164.10
2019,10,06,11,12,174.50
2019,10,06,11,13,186.10
2019,10,06,11,14,196.80
2019,10,06,11,15,205.80
2019,10,06,11,16,212.90
2019,10,06,11,17,219.10
2019,10,06,11,18,226.20
2019,10,06,11,19,230.70
2019,10,06,11,20,232.00
2019,10,06,11,21,233.10
2019,10,06,11,22,231.40
2019,10,06,11,23,227.60
2019,10,06,11,24,227.00
2019,10,06,11,25,225.00
2019,10,06,11,26,226.00
2019,10,06,11,27,230.60
2019,10,06,11,28,232.80
2019,10,06,11,29,232.00
2019,10,06,11,30,229.40
2019,10,06,11,31,223.40
2019,10,06,11,32,216.80
2019,10,06,11,33,221.90
2019,10,06,11,34,215.20
2019,10,06,11,35,215.80
2019,10,06,11,36,229.60
2019,10,06,11,37,237.80
2019,10,06,11,38,287.40
2019,10,06,11,39,268.00
2019,10,06,11,40,281.50
2019,10,06,11,41,275.50
2019,10,06,11,42,270.90
2019,10,06,11,43,266.00
2019,10,06,11,44,311.70
2019,10,06,11,45,259.20
2019,10,06,11,46,241.00
2019,10,06,11,47,246.20
2019,10,06,11,48,257.80
2019,10,06,11,49,245.20
2019,10,06,11,50,251.70
2019,10,06,11,51,255.60
2019,10,06,11,52,233.60
2019,10,06,11,53,233.70
2019,10,06,11,54,234.10
2019,10,06,11,55,231.00
2019,10,06,11,56,222.90
2019,10,06,11,57,218.00
2019,10,06,11,58,225.60
2019,10,06,11,59,241.50
2019,10,06,12,00,262.50
2019,10,06,12,01,248.00
2019,10,06,12,02,264.10
2019,10,06,12,03,299.00
2019,10,06,12,04,293.80
2019,10,06,12,05,282.90
2019,10,06,12,06,313.00
2019,10,06,12,07,295.10
2019,10,06,12,08,297.60
2019,10,06,12,09,330.60
2019,10,06,12,10,329.80
2019,10,06,12,11,326.90
2019,10,06,12,12,312.00
2019,10,06,12,13,289.20
2019,10,06,12,14,308.60
2019,10,06,12,15,362.80
2019,10,06,12,16,359.60
2019,10,06,12,17,359.00
2019,10,06,12,18,378.20
2019,10,06,12,19,436.00
2019,10,06,12,20,414.40
2019,10,06,12,21,336.90
2019,10,06,12,22,296.30
2019,10,06,12,23,297.00
2019,10,06,12,24,472.10
2019,10,06,12,25,516.20
2019,10,06,12,26,634.20
2019,10,06,12,27,629.50
2019,10,06,12,28,628.00
2019,10,06,12,29,633.40
2019,10,06,12,30,635.40
2019,10,06,12,31,628.70
2019,10,06,12,32,662.00
2019,10,06,12,33,693.50
2019,10,06,12,34,675.00
2019,10,06,12,35,681.40
2019,10,06,12,36,707.30
2019,10,06,12,37,727.80
2019,10,06,12,38,759.70
2019,10,06,12,39,774.50
2019,10,06,12,40,779.00
2019,10,06,12,41,779.00
2019,10,06,12,42,324.90
2019,10,06,12,43,344.20
2019,10,06,12,44,589.00
2019,10,06,12,45,665.00
2019,10,06,12,46,779.00
2019,10,06,12,47,544.20
2019,10,06,12,48,343.50
2019,10,06,12,49,318.20
2019,10,06,12,50,246.80
2019,10,06,12,51,195.90
2019,10,06,12,52,197.20
2019,10,06,12,53,198.30
2019,10,06,12,54,236.20
2019,10,06,12,55,256.00
2019,10,06,12,56,269.60
2019,10,06,12,57,255.40
2019,10,06,12,58,283.70
2019,10,06,12,59,313.70
2019,10,06,13,00,315.00
2019,10,06,13,01,338.20
2019,10,06,13,02,408.00
2019,10,06,13,03,408.00
2019,10,06,13,04,408.00
2019,10,06,13,05,258.90
2019,10,06,13,06,165.70
2019,10,06,13,07,164.70
2019,10,06,13,08,162.90
2019,10,06,13,09,193.80
2019,10,06,13,10,255.90
2019,10,06,13,11,253.00
2019,10,06,13,12,253.00
2019,10,06,13,13,247.00
2019,10,06,13,14,243.00
2019,10,06,13,15,243.00
2019,10,06,13,16,243.00
2019,10,06,13,17,360.00
2019,10,06,13,18,360.00
2019,10,06,13,19,360.00
2019,10,06,13,20,362.50
2019,10,06,13,21,366.00
2019,10,06,13,22,448.70
2019,10,06,13,23,522.70
2019,10,06,13,24,533.00
2019,10,06,13,25,387.20
2019,10,06,13,26,398.60
2019,10,06,13,27,449.20
2019,10,06,13,28,420.00
2019,10,06,13,29,420.00
2019,10,06,13,30,388.10
2019,10,06,13,31,369.70
2019,10,06,13,32,356.40
2019,10,06,13,33,342.60
2019,10,06,13,34,353.10
2019,10,06,13,35,575.70
2019,10,06,13,36,594.80
2019,10,06,13,37,564.00
2019,10,06,13,38,484.50
2019,10,06,13,39,372.20
2019,10,06,13,40,319.10
2019,10,06,13,41,296.80
2019,10,06,13,42,302.60
2019,10,06,13,43,332.30
2019,10,06,13,44,363.80
2019,10,06,13,45,418.90
2019,10,06,13,46,416.80
2019,10,06,13,47,356.50
2019,10,06,13,48,331.60
2019,10,06,13,49,298.20
2019,10,06,13,50,283.70
2019,10,06,13,51,272.20
2019,10,06,13,52,264.40
2019,10,06,13,53,266.20
2019,10,06,13,54,280.10
2019,10,06,13,55,284.30
2019,10,06,13,56,282.10
2019,10,06,13,57,283.00
2019,10,06,13,58,283.00
2019,10,06,13,59,281.20
2019,10,06,14,00,279.00
2019,10,06,14,01,279.00
2019,10,06,14,02,278.10
2019,10,06,14,03,274.30
2019,10,06,14,04,269.20
2019,10,06,14,05,262.50
2019,10,06,14,06,257.80
2019,10,06,14,07,253.60
2019,10,06,14,08,254.70
2019,10,06,14,09,249.90
2019,10,06,14,10,241.50
2019,10,06,14,11,230.10
2019,10,06,14,12,218.30
2019,10,06,14,13,207.20
2019,10,06,14,14,198.60
2019,10,06,14,15,195.50
2019,10,06,14,16,199.50
2019,10,06,14,17,206.60
2019,10,06,14,18,204.30
2019,10,06,14,19,190.30
2019,10,06,14,20,175.10
2019,10,06,14,21,160.20
2019,10,06,14,22,148.10
2019,10,06,14,23,137.70
2019,10,06,14,24,127.00
2019,10,06,14,25,106.80
2019,10,06,14,26,99.50
2019,10,06,14,27,94.50
2019,10,06,14,28,93.70
2019,10,06,14,29,95.80
2019,10,06,14,30,99.50
2019,10,06,14,31,100.70
2019,10,06,14,32,100.00
2019,10,06,14,33,100.00
2019,10,06,14,34,93.30
2019,10,06,14,35,94.00
2019,10,06,14,36,97.70
2019,10,06,14,37,99.80
2019,10,06,14,38,110.20
2019,10,06,14,39,129.80
2019,10,06,14,40,140.40
2019,10,06,14,41,144.80
2019,10,06,14,42,154.60
2019,10,06,14,43,160.20
2019,10,06,14,44,164.00
2019,10,06,14,45,171.10
2019,10,06,14,46,169.00
2019,10,06,14,47,166.90
2019,10,06,14,48,166.20
2019,10,06,14,49,164.20
2019,10,06,14,50,163.00
2019,10,06,14,51,162.40
2019,10,06,14,52,170.40
2019,10,06,14,53,180.80
2019,10,06,14,54,187.40
2019,10,06,14,55,187.80
2019,10,06,14,56,181.10
2019,10,06,14,57,178.00
2019,10,06,14,58,183.50
2019,10,06,14,59,190.90
2019,10,06,15,00,201.90
2019,10,06,15,01,210.10
2019,10,06,15,02,216.70
2019,10,06,15,03,219.80
2019,10,06,15,04,223.00
2019,10,06,15,05,225.40
2019,10,06,15,06,227.00
2019,10,06,15,07,225.30
2019,10,06,15,08,221.40
2019,10,06,15,09,220.70
2019,10,06,15,10,227.30
2019,10,06,15,11,238.10
2019,10,06,15,12,228.60
2019,10,06,15,13,200.60
2019,10,06,15,14,187.40
2019,10,06,15,15,185.00
2019,10,06,15,16,190.90
2019,10,06,15,17,201.40
2019,10,06,15,18,200.60
2019,10,06,15,19,204.50
2019,10,06,15,20,207.20
2019,10,06,15,21,209.90
2019,10,06,15,22,212.60
2019,10,06,15,23,210.80
2019,10,06,15,24,203.80
2019,10,06,15,25,193.90
2019,10,06,15,26,186.10
2019,10,06,15,27,182.20
2019,10,06,15,28,178.70
2019,10,06,15,29,177.20
2019,10,06,15,30,177.50
2019,10,06,15,31,180.30
2019,10,06,15,32,181.00
2019,10,06,15,33,178.50
2019,10,06,15,34,172.60
2019,10,06,15,35,172.30
2019,10,06,15,36,175.00
2019,10,06,15,37,177.20
2019,10,06,15,38,177.40
2019,10,06,15,39,178.40
2019,10,06,15,40,178.70
2019,10,06,15,41,179.00
2019,10,06,15,42,179.00
2019,10,06,15,43,174.00
2019,10,06,15,44,170.20
2019,10,06,15,45,166.40
2019,10,06,15,46,165.00
2019,10,06,15,47,165.00
2019,10,06,15,48,163.80
2019,10,06,15,49,163.00
2019,10,06,15,50,162.20
2019,10,06,15,51,160.00
2019,10,06,15,52,155.90
2019,10,06,15,53,155.00
2019,10,06,15,54,155.00
2019,10,06,15,55,155.00
2019,10,06,15,56,153.80
2019,10,06,15,57,150.40
2019,10,06,15,58,149.00
2019,10,06,15,59,149.00
2019,10,06,16,00,149.10
2019,10,06,16,01,151.00
2019,10,06,16,02,150.40
2019,10,06,16,03,149.00
2019,10,06,16,04,148.50
2019,10,06,16,05,148.00
2019,10,06,16,06,148.00
2019,10,06,16,07,148.80
2019,10,06,16,08,149.00
2019,10,06,16,09,153.30
2019,10,06,16,10,155.00
2019,10,06,16,11,155.90
2019,10,06,16,12,158.90
2019,10,06,16,13,160.00
2019,10,06,16,14,158.70
2019,10,06,16,15,156.60
2019,10,06,16,16,155.20
2019,10,06,16,17,152.90
2019,10,06,16,18,148.60
2019,10,06,16,19,145.00
2019,10,06,16,20,140.90
2019,10,06,16,21,137.20
2019,10,06,16,22,134.40
2019,10,06,16,23,129.80
2019,10,06,16,24,127.20
2019,10,06,16,25,125.20
2019,10,06,16,26,125.00
2019,10,06,16,27,125.30
2019,10,06,16,28,127.00
2019,10,06,16,29,127.40
2019,10,06,16,30,128.00
2019,10,06,16,31,127.40
2019,10,06,16,32,125.50
2019,10,06,16,33,121.80
2019,10,06,16,34,118.10
2019,10,06,16,35,113.50
2019,10,06,16,36,107.80
2019,10,06,16,37,102.20
2019,10,06,16,38,95.80
2019,10,06,16,39,91.30
2019,10,06,16,40,88.70
2019,10,06,16,41,86.60
2019,10,06,16,42,83.30
2019,10,06,16,43,81.10
2019,10,06,16,44,80.70
2019,10,06,16,45,78.50
2019,10,06,16,46,77.00
2019,10,06,16,47,76.50
2019,10,06,16,48,74.80
2019,10,06,16,49,72.70
2019,10,06,16,50,72.00
2019,10,06,16,51,70.20
2019,10,06,16,52,70.00
2019,10,06,16,53,70.40
2019,10,06,16,54,72.00
2019,10,06,16,55,72.00
2019,10,06,16,56,72.00
2019,10,06,16,57,70.70
2019,10,06,16,58,70.00
2019,10,06,16,59,70.00
2019,10,06,17,00,69.90
2019,10,06,17,01,69.00
2019,10,06,17,02,69.00
2019,10,06,17,03,69.00
2019,10,06,17,04,69.00
2019,10,06,17,05,69.00
2019,10,06,17,06,67.70
2019,10,06,17,07,67.00
2019,10,06,17,08,65.30
2019,10,06,17,09,65.00
2019,10,06,17,10,65.30
2019,10,06,17,11,67.00
2019,10,06,17,12,66.10
2019,10,06,17,13,63.90
2019,10,06,17,14,62.40
2019,10,06,17,15,60.60
2019,10,06,17,16,56.60
2019,10,06,17,17,54.10
2019,10,06,17,18,53.00